Wind_Speed
9 9 10 9 8 9 10 7 4 7 8 8 7 6 7 6 6 7 9 10 7 7 8 9 10 11 12 11 10 11 11 12 12 12 12 13 13 14 14 13 13 13 12 12 11 11 12 12 12 12 13 13 13 14 14 14 14 14 14 15 15 16 16 17 17 18 18 18 18 19 19 18 18 18 18 17 17 17 16 16 16 16 16 16 16
9 9 10 10 9 9 10 8 7 8 9 9 9 8 9 7 6 8 10 10 8 8 9 10 10 11 11 11 10 11 12 12 13 13 13 14 14 15 14 14 14 13 12 12 12 13 13 13 13 13 13 13 14 14 14 14 14 15 15 15 16 16 16 17 17 18 18 18 18 17 17 17 17 17 17 16 16 16 16 16 16 16 16 16 16
10 10 9 8 8 8 9 9 9 9 9 9 9 10 10 9 9 10 11 10 9 9 10 11 11 11 11 11 11 12 12 13 13 13 14 15 15 15 15 14 14 13 13 13 13 14 14 15 15 15 15 14 14 14 14 15 15 15 15 16 16 16 16 16 17 17 16 16 16 16 16 16 16 16 16 16 15 16 15 15 15 15 16 16 16
10 11 9 8 8 7 8 9 9 10 11 11 11 11 10 10 12 12 12 12 11 11 12 11 11 11 10 11 13 13 13 13 14 14 15 16 16 16 15 15 15 14 14 14 14 15 15 15 16 16 16 15 15 15 15 15 16 16 16 15 15 15 15 15 15 15 15 15 15 15 15 15 15 15 15 15 15 15 15 15 15 15 15 15 16
10 10 9 9 8 7 8 10 11 11 12 11 11 11 12 13 14 14 14 14 13 12 12 12 12 12 11 12 13 13 13 14 13 14 15 16 16 16 16 16 16 16 16 16 16 16 16 16 16 16 16 16 16 15 16 16 15 15 15 15 14 14 14 14 14 14 14 14 14 14 14 15 15 15 15 15 15 14 14 14 14 15 15 15 16
10 10 10 9 8 8 10 11 12 12 11 12 11 13 14 16 16 15 16 15 14 13 13 12 13 13 13 13 13 13 14 14 13 13 14 16 16 16 17 17 17 18 18 18 17 17 17 17 17 17 17 16 16 15 15 15 15 14 14 14 14 13 13 13 13 13 13 14 14 14 14 14 14 14 14 14 14 14 14 14 14 15 15 16 16
9 10 11 10 9 9 10 12 12 12 11 12 13 15 16 16 16 16 17 16 15 15 14 14 14 14 14 13 13 13 14 14 13 13 14 15 16 16 17 17 17 18 18 18 18 18 18 18 17 17 16 16 15 15 15 14 14 14 14 13 13 13 13 13 13 13 13 13 13 13 13 13 13 13 13 13 13 13 14 14 15 15 16 17 17
9 10 10 9 9 9 9 11 11 11 11 12 13 16 16 16 16 17 17 16 15 15 15 15 15 14 14 14 13 13 13 14 14 14 15 16 17 17 17 17 18 19 19 19 18 18 18 18 18 17 16 16 15 15 15 14 14 14 14 13 13 13 13 13 13 13 13 12 12 12 11 11 11 11 12 12 12 13 14 14 15 16 17 18 19
9 10 10 9 9 9 9 10 10 10 12 12 13 16 16 16 16 17 17 16 15 15 15 15 15 15 14 14 14 13 14 14 15 15 16 17 18 19 19 19 20 20 19 20 19 19 19 19 18 18 17 16 16 15 15 15 14 14 14 13 13 13 13 12 12 12 11 11 10 10 10 10 10 11 11 12 13 14 15 16 17 18 19 20 21
8 9 10 10 10 9 8 10 11 12 13 13 14 15 16 15 16 17 17 16 15 15 15 15 15 15 15 14 14 14 15 16 17 17 18 19 19 20 20 20 20 20 19 19 19 18 18 18 18 17 17 16 16 15 15 14 14 13 13 13 12 12 11 11 10 10 9 9 9 9 9 9 10 10 11 12 14 15 16 17 18 20 21 22 22
8 8 10 10 10 9 8 9 12 13 12 12 13 13 14 15 16 16 16 16 15 15 15 15 15 15 15 15 15 15 16 17 18 18 19 19 19 18 18 18 19 19 18 18 17 17 17 16 16 16 15 15 15 14 14 13 13 12 12 11 11 10 10 10 9 9 9 8 8 8 8 9 9 10 12 13 15 16 17 18 19 20 21 22 23
7 7 8 9 10 10 10 11 13 13 11 11 12 12 13 14 14 15 15 15 15 15 15 15 15 15 15 15 15 16 17 17 18 18 18 17 17 17 17 17 17 17 17 17 16 16 15 15 15 15 14 14 13 13 12 12 12 11 11 10 10 9 9 9 8 8 7 7 7 8 8 9 10 11 13 14 15 17 18 19 20 21 22 22 23
7 7 7 8 9 10 11 13 13 12 11 11 12 12 12 13 12 13 13 14 14 13 14 14 14 14 15 15 15 15 16 16 16 16 16 16 16 16 16 16 16 16 15 15 15 14 14 14 14 14 13 12 12 11 11 11 10 10 10 9 9 9 8 8 8 7 7 7 8 8 9 10 11 13 14 15 16 17 18 19 21 21 22 23 23
8 8 8 8 8 9 10 11 11 11 11 11 11 11 12 11 11 11 11 12 12 12 12 13 13 14 14 14 14 14 14 14 14 14 14 14 14 15 15 14 14 14 13 14 14 13 14 14 13 13 12 11 11 10 10 10 9 9 9 9 8 9 8 8 8 8 8 9 9 9 10 11 13 14 15 16 17 18 19 20 21 22 23 24 24
9 9 9 9 9 9 9 9 10 10 10 10 10 10 11 11 9 9 10 10 11 11 10 11 12 13 12 12 12 12 12 12 12 12 12 12 13 13 13 13 13 12 12 13 13 13 13 12 12 12 11 11 10 9 9 9 9 8 8 8 8 9 9 9 9 9 10 10 11 11 13 14 15 16 16 17 18 19 20 21 23 24 24 25 26
9 9 10 10 10 10 10 10 10 9 9 10 10 9 9 9 8 8 8 9 10 9 9 9 10 11 11 11 11 11 11 11 11 10 10 10 10 11 12 11 11 11 11 12 12 12 12 11 11 11 11 10 9 9 9 9 9 9 9 9 9 9 9 10 10 11 11 12 13 14 14 15 15 16 17 18 19 20 22 23 24 25 26 26 27
9 9 10 10 10 11 10 10 10 9 10 10 9 8 8 7 8 8 7 8 8 8 8 8 9 10 10 10 10 10 10 10 9 8 8 8 8 9 10 10 10 10 10 10 11 11 11 11 10 10 10 10 10 10 10 10 10 10 11 11 11 11 12 12 13 13 13 14 14 15 15 16 16 17 18 19 20 21 23 24 25 25 26 27 27
10 10 10 10 10 11 10 10 9 9 9 9 8 8 8 7 7 7 7 7 7 8 7 8 9 9 9 9 9 9 8 8 8 7 7 7 7 8 8 8 8 8 8 8 9 9 9 10 10 9 9 10 10 11 11 12 12 12 12 13 13 14 14 14 14 14 13 13 14 14 15 16 17 18 19 20 21 22 23 23 24 24 25 26 27
10 10 10 10 10 10 10 10 9 9 9 9 8 9 8 8 8 7 7 7 7 7 7 7 8 8 8 8 8 7 7 6 6 6 5 5 5 6 6 6 7 7 7 7 7 8 8 9 9 9 9 9 10 11 12 12 13 13 14 14 14 13 13 13 12 12 12 13 13 14 16 17 18 19 20 21 21 22 22 22 23 23 24 25 25
11 10 10 10 10 10 10 10 10 9 9 8 8 8 8 8 8 7 6 6 6 6 6 6 7 7 7 7 7 6 6 5 5 4 4 3 4 4 4 5 5 5 6 7 7 7 7 8 8 8 8 9 10 11 12 12 13 13 13 12 12 12 12 11 11 11 12 13 14 16 17 18 18 19 20 21 21 21 22 22 23 23 24 24 25
11 11 11 10 10 10 10 10 10 10 9 9 8 8 8 8 7 7 6 5 5 5 5 5 5 6 6 6 6 6 5 5 4 4 3 3 2 2 2 3 4 5 5 6 6 6 7 7 7 7 7 8 9 10 11 11 12 12 11 11 11 11 11 11 11 12 13 14 15 16 17 18 18 19 20 20 21 22 22 23 24 24 25 25 25
12 11 11 10 10 9 9 10 9 9 9 9 8 8 7 7 6 6 6 5 4 4 4 4 4 4 4 5 5 5 5 5 4 4 3 3 2 1 1 2 3 4 4 5 5 6 6 6 6 6 7 8 9 9 10 10 10 11 11 11 11 10 10 11 12 13 14 15 16 16 17 17 18 19 19 20 20 21 22 23 24 25 26 26 26
12 11 11 10 10 9 9 9 9 9 9 8 8 8 7 6 6 5 5 5 4 4 3 3 3 3 3 3 4 4 4 5 5 4 3 3 1 0 1 2 2 3 3 4 4 5 5 5 5 5 6 7 7 7 8 9 10 10 10 10 10 10 10 11 12 13 13 14 15 16 16 17 17 18 19 20 20 21 22 23 24 25 27 27 28
12 11 10 10 9 9 8 8 8 8 8 8 7 7 6 6 5 5 4 4 4 4 4 3 3 3 3 3 4 4 4 4 4 3 3 2 1 0 1 2 2 3 3 4 4 4 3 3 4 4 5 5 5 6 7 8 9 9 9 8 8 9 10 10 11 12 13 13 14 15 16 16 17 18 19 21 22 22 23 24 25 26 27 28 29
11 10 9 9 8 8 8 8 8 8 7 7 7 6 6 6 5 4 3 3 4 4 4 3 3 3 3 3 4 3 4 4 4 3 2 1 0 0 1 1 2 3 3 3 3 2 2 2 2 3 3 3 4 5 6 7 7 7 7 7 7 8 10 10 11 11 12 13 13 14 15 16 18 19 20 22 23 24 24 25 26 27 28 28 29
10 10 9 9 9 8 8 8 7 7 7 6 6 6 5 5 4 3 2 1 2 3 3 3 3 3 3 3 3 3 3 4 4 2 1 1 0 0 1 2 2 3 3 2 2 1 1 1 1 2 2 3 4 5 6 6 6 6 7 7 9 10 10 10 10 11 12 13 13 14 15 17 18 19 21 22 23 24 25 26 27 28 30 30 30
11 11 11 11 11 10 10 9 9 8 8 7 6 6 5 5 5 4 4 3 1 1 2 2 2 3 3 3 3 3 3 4 4 2 1 1 1 2 2 2 2 3 2 2 1 1 1 1 2 3 3 4 5 5 5 5 5 6 7 8 9 10 9 9 10 11 12 13 14 15 16 18 19 21 23 24 25 25 26 26 27 28 30 31 32
13 14 14 13 12 12 11 10 10 9 8 8 7 6 6 6 6 6 6 6 5 4 2 1 1 2 2 2 3 3 3 4 4 3 2 2 2 3 3 2 2 2 2 1 1 2 2 2 2 3 4 4 4 4 4 5 5 6 7 9 10 10 10 10 11 12 13 13 14 16 17 19 21 22 24 24 25 25 26 27 27 27 28 30 32
16 16 15 14 13 12 11 10 9 8 7 6 5 5 4 4 4 5 5 5 6 6 5 5 3 1 1 2 3 3 4 5 4 4 4 4 4 4 3 2 2 2 1 1 2 2 2 3 3 3 3 3 3 4 5 6 7 7 8 10 10 10 11 12 13 13 14 15 15 16 18 19 21 22 24 25 25 26 26 26 26 26 27 28 30
18 18 17 15 14 12 11 9 8 7 6 5 4 3 2 1 1 2 3 3 4 5 6 6 6 4 1 2 3 4 5 5 5 5 5 5 5 5 4 2 1 1 1 1 2 2 2 2 2 3 3 3 4 4 6 7 8 8 9 10 11 12 13 14 15 16 17 17 17 17 18 19 21 23 25 26 26 26 27 27 27 27 27 28 28
20 20 19 17 15 13 12 10 8 7 5 4 3 3 2 1 1 2 2 2 3 4 5 6 6 6 5 1 2 4 5 6 6 5 5 5 5 5 4 2 0 0 0 1 1 1 2 2 2 2 3 3 4 5 6 7 8 9 10 12 13 14 15 15 16 17 18 18 18 18 19 20 21 23 24 25 26 27 28 28 29 29 30 30 30
21 21 20 18 17 15 13 11 9 7 6 5 5 4 4 3 3 3 4 4 4 4 4 5 5 6 6 4 2 1 4 6 6 5 5 5 5 4 3 2 1 1 1 1 1 1 1 1 2 2 3 4 5 6 7 8 9 11 13 14 14 14 15 16 16 16 16 17 18 18 19 20 21 23 24 25 27 28 29 30 30 31 32 32 33
23 23 22 20 18 17 15 13 11 9 8 7 7 7 6 6 5 5 5 5 5 6 5 5 5 6 5 5 4 2 2 4 5 5 5 5 4 4 3 2 2 2 2 2 1 1 1 1 2 3 4 5 5 6 8 10 12 13 14 15 13 11 13 15 15 15 15 16 18 20 21 22 24 25 26 28 29 30 31 32 33 33 34 34 34
25 24 23 21 20 19 17 15 13 11 10 9 9 9 8 8 7 7 7 6 6 7 7 6 6 6 5 5 4 3 2 3 4 5 5 5 4 4 4 3 3 3 2 2 1 0 1 2 3 4 5 6 7 9 10 12 14 14 15 14 10 8 11 14 14 15 16 17 19 22 24 25 26 28 29 31 32 33 34 35 35 36 36 36 35
26 26 25 23 22 21 19 17 15 13 12 11 11 11 11 10 8 8 8 8 7 7 8 8 6 6 6 5 4 3 2 3 4 5 5 5 5 5 5 4 4 3 2 1 1 1 2 3 4 5 6 7 8 10 11 13 15 16 16 16 13 12 14 16 17 18 18 19 21 23 25 27 29 32 33 34 35 36 37 38 38 39 39 38 36
28 27 26 25 24 23 21 19 17 15 14 13 12 12 13 11 10 9 9 9 9 8 9 9 8 7 7 6 5 4 3 3 4 4 5 5 6 6 5 5 5 4 3 2 2 1 2 3 3 4 5 6 8 9 11 14 18 18 16 16 16 17 18 19 19 20 21 22 23 25 26 28 30 32 34 35 37 38 39 40 41 41 40 39 37
29 29 28 27 25 24 22 20 19 17 16 14 14 13 13 12 11 10 10 10 10 10 10 9 9 9 8 7 6 6 4 4 4 5 5 6 7 7 7 6 6 5 3 2 2 2 3 4 5 5 6 7 9 11 13 15 18 19 16 15 17 18 19 20 20 22 23 24 25 26 28 29 30 31 33 35 37 40 42 43 44 44 43 40 38
29 30 29 28 27 26 24 22 20 18 17 16 15 14 14 13 12 12 11 11 11 11 11 10 10 10 9 7 7 7 6 5 5 6 6 6 7 8 8 8 7 6 4 3 2 3 4 5 6 8 10 11 13 16 17 16 16 16 15 14 16 19 20 20 20 22 23 24 25 27 28 30 31 31 32 35 37 40 42 43 45 47 47 44 40
30 31 30 29 28 27 26 23 21 19 18 17 16 15 15 14 14 13 13 12 12 12 12 12 11 11 10 8 7 8 8 7 6 7 7 8 8 9 10 10 9 7 5 4 3 3 4 5 7 10 12 14 15 17 19 18 15 14 13 13 16 18 20 20 20 21 22 23 24 26 26 28 29 31 33 34 36 37 39 41 43 44 46 46 44
31 31 31 30 29 28 26 24 22 21 19 18 17 16 16 16 15 15 14 13 12 12 12 12 12 11 11 10 8 7 9 9 8 8 8 9 10 10 11 11 10 9 7 5 5 4 5 7 9 10 12 13 14 16 18 17 13 10 11 13 15 16 18 20 22 22 21 22 24 26 27 28 30 33 35 36 37 37 38 39 40 41 42 43 44
32 32 32 31 29 28 27 25 23 22 21 19 19 18 17 17 16 15 15 14 14 13 13 12 12 12 11 11 9 8 9 10 10 9 9 10 11 11 12 12 12 10 9 8 7 6 7 8 10 11 12 12 12 14 18 18 13 9 11 14 15 16 17 20 23 24 23 22 23 26 29 31 32 34 36 38 38 39 39 39 40 40 39 39 40
34 33 32 31 30 29 28 26 25 23 22 21 20 20 19 18 17 16 16 16 15 14 13 13 12 12 12 11 10 9 9 11 11 10 10 11 12 13 13 12 12 12 11 10 9 8 9 10 12 12 12 12 11 12 16 18 15 12 13 16 17 17 17 18 21 25 25 24 23 24 28 32 32 33 35 37 39 40 41 42 41 39 38 36 36
35 34 34 32 31 31 29 28 26 24 23 23 22 21 21 19 18 17 17 17 16 15 14 14 13 13 12 12 11 11 11 11 12 12 11 11 12 14 14 13 13 13 12 11 11 11 11 11 13 13 13 13 12 12 15 17 15 13 15 17 18 17 17 17 19 22 25 26 24 23 25 30 31 32 33 36 38 40 42 43 42 40 37 35 35
35 35 35 34 33 33 31 29 28 26 24 24 23 23 22 21 19 18 18 17 17 16 16 15 14 14 13 13 12 12 12 12 13 13 12 12 12 14 14 14 13 14 13 12 13 13 12 12 13 15 14 14 14 14 15 17 15 13 15 18 19 18 19 20 20 22 24 26 25 25 26 29 31 31 33 34 35 35 37 38 39 39 37 35 35
35 35 36 36 35 35 33 31 30 28 26 24 24 24 23 22 21 19 18 18 17 18 17 16 16 15 14 14 13 13 13 13 13 14 13 12 12 14 15 15 15 15 14 14 15 14 13 13 14 16 16 15 15 15 17 18 15 12 14 18 19 19 21 23 23 24 26 27 27 26 28 30 31 31 33 33 33 33 34 34 35 35 35 35 35
36 35 35 36 36 36 35 33 32 30 27 25 25 25 24 23 22 20 18 18 18 18 18 17 17 16 15 15 15 14 14 14 13 14 14 13 12 13 16 17 17 17 16 16 16 15 15 15 14 15 16 16 16 17 19 18 13 11 14 17 18 19 21 24 26 26 28 30 29 27 28 30 30 30 32 33 34 35 35 34 34 34 34 34 35
36 35 35 35 35 36 35 34 33 31 29 26 25 26 26 24 23 21 19 19 19 19 19 19 18 18 17 16 16 15 14 14 14 14 15 14 12 13 16 18 18 19 18 17 16 16 17 17 15 15 16 16 16 17 19 17 13 13 15 17 18 18 20 24 27 29 30 31 31 29 29 30 30 29 30 33 35 35 35 34 34 34 33 33 34
35 35 35 34 34 35 35 34 32 31 30 27 26 26 26 25 24 22 20 20 20 20 20 20 20 19 18 18 18 17 15 15 15 15 15 15 13 13 15 18 19 20 19 18 17 18 19 18 16 15 16 17 17 18 19 17 15 16 17 18 19 20 20 23 26 30 33 34 33 32 32 33 33 32 31 33 35 36 35 34 34 34 33 32 31
34 33 33 33 33 34 34 33 32 31 30 28 26 27 27 26 24 23 22 21 20 21 21 22 21 20 20 19 19 18 17 16 16 15 16 16 15 15 16 17 20 20 20 19 19 19 20 20 19 18 17 18 18 18 19 19 19 19 19 20 22 22 23 24 26 29 33 35 35 34 34 35 37 37 35 33 35 37 37 36 35 35 35 32 31
32 32 32 32 32 32 32 32 31 30 30 28 27 27 27 26 25 23 22 22 21 21 22 23 22 22 21 21 20 19 18 17 16 16 16 16 16 17 17 17 19 20 21 22 21 20 20 20 20 20 20 20 19 19 21 22 22 22 22 23 24 25 26 27 28 29 32 35 36 36 36 36 37 39 38 35 34 36 38 37 36 36 36 35 33
31 31 31 30 31 31 31 31 30 29 29 28 27 27 26 25 24 23 22 22 22 22 23 23 23 23 22 22 21 19 19 19 17 16 16 16 16 18 19 18 19 21 22 23 23 22 21 21 20 21 22 21 21 23 25 26 26 25 25 25 26 27 28 29 31 32 33 36 37 37 37 38 38 39 40 39 37 35 36 37 37 37 37 37 37
Wind_Direction
95 90 90 89 90 87 85 93 91 85 90 92 92 86 79 76 84 99 94 89 95 97 91 90 88 86 87 84 81 84 82 79 79 79 78 79 80 80 80 80 78 76 74 74 72 69 66 64 63 64 65 64 63 63 63 62 60 57 53 50 48 46 44 42 41 40 40 40 40 40 40 40 41 40 40 39 38 36 33 31 29 26 23 19 17
96 93 91 89 87 82 83 89 76 65 76 92 96 91 83 79 86 90 85 88 100 109 105 100 93 89 88 87 86 87 84 80 79 79 79 79 79 78 77 76 75 74 73 73 71 69 66 65 64 64 64 63 63 62 61 60 57 53 51 49 47 46 44 43 42 41 40 40 41 41 40 39 39 38 37 36 35 33 31 28 25 22 18 14 10
101 99 95 89 85 79 81 85 81 80 85 89 83 74 69 68 77 82 84 91 101 108 109 105 99 94 93 94 92 87 84 82 81 81 82 81 78 75 73 72 73 72 73 73 72 71 69 68 67 66 64 62 61 60 59 57 55 52 50 50 48 47 46 45 44 43 43 42 42 41 40 38 37 37 35 34 32 30 27 24 20 17 12 8 3
103 103 103 99 90 78 79 81 83 89 90 83 74 69 68 71 76 81 88 95 102 105 106 105 101 97 95 95 94 89 85 83 83 84 83 81 79 75 73 72 73 73 72 72 73 73 72 72 70 68 66 63 61 60 60 59 57 55 53 52 51 50 49 48 48 47 46 45 43 42 40 39 37 36 34 32 29 25 22 19 15 10 6 1 357
107 109 107 101 96 91 88 85 88 93 88 81 77 77 80 82 83 86 91 97 103 106 106 105 103 99 92 88 89 89 88 86 85 87 85 83 81 79 77 76 76 76 76 75 75 75 75 75 74 73 71 68 66 64 62 61 60 58 55 54 53 53 53 52 52 51 49 47 45 43 41 40 38 36 33 29 25 20 16 12 9 4 360 356 353
113 115 112 108 106 102 94 89 94 97 89 83 79 79 84 87 88 91 95 100 107 110 111 108 103 98 92 87 87 89 90 89 88 87 86 85 84 83 81 81 81 81 81 80 79 78 77 76 75 74 72 71 69 66 64 62 60 59 57 57 57 57 57 56 56 54 52 49 46 44 41 39 37 33 29 25 20 16 11 7 4 360 356 353 351
116 117 112 110 108 103 96 91 98 102 92 89 87 85 88 90 92 96 99 104 109 112 111 108 102 97 94 91 89 89 90 89 88 86 86 86 86 85 83 83 84 84 84 84 83 82 80 78 76 73 71 70 68 66 64 62 61 61 61 61 61 60 59 58 56 54 52 49 46 43 40 36 33 28 24 22 18 12 7 3 359 356 353 351 349
117 115 111 111 108 106 100 95 103 107 96 91 92 93 94 96 98 99 101 103 107 109 109 106 103 98 94 92 90 89 89 88 87 86 87 88 88 87 86 85 85 86 87 87 85 84 82 80 78 76 74 72 70 68 67 67 66 65 65 64 63 61 59 56 54 52 50 48 45 41 37 33 28 25 23 21 16 9 3 359 356 354 353 352 351
115 113 113 118 113 104 103 107 115 113 106 103 99 97 97 98 101 102 102 103 105 108 108 106 103 99 95 92 91 90 90 90 89 90 90 91 91 91 91 89 88 87 87 86 85 84 83 82 81 79 77 76 74 73 72 71 71 70 69 67 66 63 60 57 54 52 50 47 44 40 34 31 26 23 20 17 12 6 2 358 356 355 356 355 355
113 113 115 120 115 106 108 114 119 118 115 113 102 97 98 99 102 103 105 106 108 108 106 105 102 101 98 96 95 95 95 95 95 96 96 96 95 93 93 92 91 90 88 87 86 85 84 83 82 81 79 77 76 74 72 71 70 69 68 67 65 63 60 58 55 52 49 46 42 37 31 27 22 19 16 13 9 5 2 360 359 359 360 359 358
113 115 117 119 117 117 119 114 115 117 117 113 107 102 102 102 101 102 104 106 107 107 105 105 103 102 101 100 101 102 102 102 102 103 102 100 99 97 96 95 93 91 90 89 87 86 84 83 81 80 78 77 75 73 71 69 68 66 65 64 62 60 57 55 54 51 47 44 39 33 28 23 19 16 14 12 9 7 5 3 3 3 1 0 359
116 117 118 118 119 121 125 123 121 122 122 123 124 116 106 102 100 100 101 102 103 105 106 106 105 104 104 105 107 108 108 107 108 108 107 105 104 102 100 97 95 93 90 88 86 84 82 80 79 77 75 73 72 70 70 68 67 65 63 62 61 60 59 56 53 52 48 44 38 33 28 23 19 17 16 14 12 10 9 6 4 2 1 359 359
124 123 121 117 118 119 123 127 127 128 132 132 132 126 113 105 102 101 99 99 100 101 104 106 107 108 109 110 112 113 113 112 113 112 110 109 108 106 102 99 97 93 90 86 83 80 78 76 74 72 70 68 68 67 66 67 66 66 66 65 65 65 62 59 54 50 46 42 38 33 29 25 23 21 19 17 15 13 9 5 2 1 0 360 360
132 131 129 125 124 121 121 124 122 123 129 128 127 129 122 114 109 106 102 100 99 98 102 106 109 111 113 114 116 116 116 116 115 114 112 110 108 107 105 101 97 92 88 81 77 74 71 71 68 65 63 63 63 63 64 66 68 70 72 70 68 66 62 58 53 48 44 41 39 35 32 29 27 24 21 18 14 10 6 3 2 1 0 0 0
139 138 137 134 131 125 122 121 117 117 122 122 120 125 124 121 117 115 110 105 102 100 102 106 109 112 114 116 118 119 119 118 116 113 111 109 107 108 106 99 95 89 82 76 71 66 64 65 63 60 58 58 60 62 65 68 72 74 75 73 68 63 60 56 53 49 46 43 40 37 34 30 26 23 19 15 11 7 4 3 2 2 1 360 359
146 144 143 140 135 131 128 124 121 121 121 118 115 117 122 125 126 123 118 112 110 109 109 110 110 112 115 118 119 120 120 118 117 113 110 109 107 106 103 98 92 85 77 71 67 61 58 57 58 57 57 59 61 65 69 74 77 77 75 72 66 62 59 56 54 50 47 43 39 36 32 27 23 19 15 11 8 6 5 4 3 3 1 0 359
154 151 148 147 142 137 134 130 128 127 123 119 116 120 125 128 131 130 125 122 122 120 120 118 115 114 118 122 123 126 124 121 121 117 110 110 105 99 99 96 91 84 76 70 65 59 55 53 53 55 57 61 64 67 70 72 73 73 70 68 65 63 59 56 53 49 44 40 35 30 26 22 18 15 11 9 7 5 5 4 4 3 2 1 1
161 159 156 155 151 144 142 140 136 133 129 126 124 129 133 132 135 137 136 136 134 132 131 129 125 123 125 128 130 134 132 128 128 124 116 111 103 97 98 95 89 83 74 66 59 52 53 52 50 52 56 61 65 65 64 64 64 64 64 64 63 62 58 54 50 45 39 34 28 23 19 15 12 10 8 6 5 5 4 4 4 3 3 2 2
168 166 165 164 161 155 154 152 148 145 141 138 137 138 138 138 139 141 144 145 144 140 140 141 137 133 133 134 136 137 136 134 134 131 126 115 103 98 96 89 81 73 62 52 45 41 46 49 46 49 54 58 62 62 60 60 60 60 60 60 59 57 54 49 42 36 30 24 18 14 10 8 7 6 5 4 4 3 3 2 2 1 0 0 359
177 174 172 171 171 167 165 165 164 161 157 153 150 146 144 144 143 146 151 153 153 150 150 151 148 146 146 146 146 146 147 151 153 150 140 126 116 104 90 78 65 54 44 37 33 32 36 41 45 53 58 59 60 60 60 59 58 56 54 52 49 45 40 34 28 21 16 12 9 7 5 4 3 3 2 2 2 1 360 358 357 356 355 355 355
186 183 180 178 178 176 174 175 176 175 172 167 164 159 155 153 149 151 157 161 163 162 160 160 159 161 161 159 159 161 167 175 178 175 166 158 152 114 76 62 44 34 26 22 23 23 27 34 46 59 64 62 61 60 58 55 51 47 41 37 33 28 23 17 13 9 7 5 4 3 2 1 1 0 0 360 359 357 355 353 351 350 349 350 350
193 190 188 185 185 184 182 182 184 186 183 178 177 176 171 168 163 160 161 163 170 174 173 174 173 177 176 174 174 177 184 196 199 193 190 189 182 97 54 45 32 22 13 13 17 17 22 36 53 65 68 65 61 56 50 44 38 32 27 24 19 16 13 9 6 4 3 2 1 1 0 360 359 358 358 356 355 353 350 349 347 346 346 346 347
194 191 191 189 189 190 189 188 191 194 194 189 187 188 185 183 180 176 173 174 178 185 186 187 188 192 193 191 195 200 203 211 213 205 205 207 190 116 43 25 18 18 12 10 12 16 30 52 69 75 71 64 56 47 38 31 26 22 17 14 11 10 8 5 5 3 2 1 0 360 359 358 357 355 354 352 351 349 348 346 345 344 344 343 343
193 190 189 188 188 191 191 191 194 196 198 197 194 193 193 194 193 190 190 194 199 200 201 201 201 205 207 209 212 218 224 228 227 220 219 221 197 106 35 16 4 5 5 4 9 23 53 78 85 80 69 56 43 33 26 20 16 12 9 9 9 9 8 6 5 3 2 1 359 358 356 354 353 351 350 349 348 347 346 345 344 342 342 341 340
192 188 184 182 181 183 186 187 190 193 195 196 195 192 194 195 194 193 197 212 225 225 223 220 217 215 217 219 220 225 236 240 238 230 219 215 162 90 15 1 351 354 359 7 20 37 71 88 83 70 56 39 30 21 14 9 7 6 8 11 11 12 11 8 6 5 3 1 358 356 353 351 350 348 347 346 345 345 344 343 341 340 339 337 335
188 181 176 170 167 166 167 168 168 171 175 178 180 179 180 181 176 170 165 194 242 247 245 240 233 226 221 221 222 225 235 244 242 229 217 220 172 305 322 336 341 348 357 11 27 34 43 57 51 39 27 19 12 7 4 2 2 6 10 12 12 11 10 7 6 4 1 358 355 353 350 348 346 345 344 343 342 341 340 340 339 338 336 333 330
181 175 169 162 156 151 146 143 139 138 139 139 140 139 138 133 122 109 100 91 69 320 274 260 249 236 224 214 216 219 232 246 248 246 256 277 295 299 313 333 336 341 349 3 15 10 14 14 7 5 1 1 3 4 5 6 7 11 12 12 10 7 6 4 2 359 356 354 352 350 348 345 344 343 343 341 339 337 334 332 332 333 334 333 330
179 175 168 161 155 150 144 139 134 131 127 124 122 119 113 106 99 92 85 80 71 56 37 7 291 251 232 216 212 217 234 251 260 271 287 291 292 294 303 320 325 324 331 350 1 352 355 355 357 3 1 5 10 13 17 20 20 18 14 9 5 2 0 359 357 354 352 350 349 347 346 345 345 344 341 338 335 332 330 329 330 333 335 334 331
182 178 172 168 163 160 156 151 147 144 139 135 131 123 112 98 87 82 78 75 71 63 54 49 42 9 232 221 219 222 236 251 261 272 283 287 287 287 287 297 307 307 324 358 1 355 359 0 5 11 13 20 27 29 31 27 22 15 9 3 1 1 359 356 353 351 350 350 349 347 345 344 344 342 339 336 336 337 337 338 339 339 337 335 334
186 181 178 176 174 173 172 168 167 166 165 164 163 158 143 113 63 51 51 56 59 56 51 48 46 43 30 231 226 230 239 249 257 265 273 277 278 278 275 273 283 309 338 7 14 17 17 14 21 31 38 42 42 37 31 22 16 10 5 2 2 1 359 356 353 350 348 346 345 342 340 340 339 339 339 340 342 342 343 342 340 337 334 333 332
188 185 185 184 183 186 186 186 187 188 192 198 205 214 221 236 287 318 333 351 13 25 28 33 36 35 35 32 232 233 240 248 253 256 262 266 267 268 265 254 208 125 65 43 39 44 46 51 60 59 54 44 35 29 23 18 12 4 1 1 360 359 359 359 356 350 343 339 336 336 337 339 340 341 342 342 342 341 340 338 336 333 331 329 328
191 191 192 191 191 195 197 200 203 206 212 224 236 245 250 256 270 284 295 310 324 340 354 5 11 18 26 30 18 247 240 244 248 248 248 251 252 252 247 224 157 135 125 105 97 90 84 85 71 51 42 32 22 16 13 11 7 1 357 355 356 3 6 3 357 349 340 335 334 336 338 340 341 342 342 342 341 340 338 336 334 332 329 327 325
195 196 197 196 199 202 205 210 215 218 223 231 240 248 253 255 260 269 279 291 300 310 322 336 345 353 4 14 18 1 266 248 241 238 237 236 230 224 218 196 156 146 144 139 141 126 72 44 29 25 23 20 16 11 8 5 0 355 351 349 355 6 2 352 348 345 342 340 339 339 340 342 343 342 342 342 341 340 338 337 335 333 330 328 325
200 201 202 202 205 208 211 216 221 225 230 235 239 245 249 250 252 257 267 278 287 293 301 311 322 328 334 348 2 2 321 264 243 234 229 223 215 204 195 183 170 170 169 170 175 148 357 4 16 15 13 11 6 6 6 1 358 359 359 360 1 353 341 341 345 347 346 344 342 341 342 343 343 343 344 343 342 340 339 337 336 334 332 329 327
204 206 207 208 211 213 215 220 224 229 234 237 238 240 244 246 247 248 257 269 277 282 287 294 301 305 310 319 330 339 324 280 256 239 226 218 211 201 189 184 189 199 199 202 224 294 341 358 8 7 6 359 351 0 6 2 7 15 15 12 8 356 349 351 352 349 347 346 346 344 344 345 345 345 345 344 342 341 339 337 336 334 333 330 329
208 210 212 213 215 217 219 222 225 230 235 238 238 240 243 245 246 246 252 262 271 275 277 281 284 285 289 294 300 307 299 280 269 249 231 222 215 207 199 197 205 217 221 232 258 301 351 5 6 358 352 338 336 1 13 4 6 13 13 9 6 2 359 356 352 350 349 349 348 347 346 346 346 345 344 343 342 340 339 338 337 334 332 329 328
212 214 216 217 219 221 222 225 227 230 236 239 241 241 244 247 248 249 251 258 267 273 274 274 274 274 275 277 282 286 279 267 267 259 243 230 222 216 213 214 220 229 234 246 275 327 357 357 350 336 328 327 335 355 3 357 357 2 5 6 4 1 1 358 354 351 349 348 348 347 346 345 345 345 344 342 342 341 340 340 337 334 331 329 327
216 217 219 220 221 224 225 227 230 232 236 240 242 244 245 247 249 251 252 257 265 272 275 274 272 271 271 270 270 274 272 261 257 260 253 237 227 221 220 222 228 236 240 250 280 326 343 338 330 322 322 332 340 345 345 342 344 350 357 2 0 358 359 358 356 353 349 346 346 345 344 343 343 344 344 343 343 342 341 339 336 333 330 328 326
220 221 222 222 224 226 228 229 231 234 237 240 243 245 246 247 249 251 252 258 265 272 277 277 275 274 273 271 265 265 267 262 253 253 254 244 232 226 223 224 230 237 242 248 263 293 315 310 306 310 319 329 337 339 337 333 333 340 349 356 356 354 354 354 353 351 348 345 343 343 341 341 341 343 344 344 342 341 340 337 335 331 327 325 324
225 225 225 225 227 229 230 231 233 237 239 242 244 245 246 247 249 252 254 260 267 273 278 280 278 277 275 273 266 257 259 262 255 247 249 249 242 233 226 225 230 236 239 241 245 260 278 283 290 302 314 325 336 342 344 345 345 345 346 348 349 351 352 349 345 343 344 345 344 341 338 340 344 345 344 343 341 340 339 337 334 331 327 323 323
230 229 229 229 230 232 233 234 236 239 242 244 245 246 247 247 250 255 258 262 268 273 277 278 277 276 274 273 269 258 251 255 256 250 246 249 249 244 234 227 228 233 237 239 243 253 265 273 284 297 308 322 339 347 350 355 358 350 340 339 342 349 352 349 342 338 338 342 343 342 339 341 347 348 344 341 340 339 338 336 333 330 326 323 321
232 232 233 233 233 235 237 237 238 241 244 246 247 247 247 248 252 258 262 265 268 272 275 275 274 272 271 270 269 263 253 251 254 252 247 248 250 250 244 233 226 229 235 242 248 255 264 274 285 295 304 318 334 344 346 349 347 337 333 333 337 345 350 350 344 336 332 335 342 345 343 342 346 348 344 340 340 340 338 336 333 328 324 321 320
234 234 235 236 236 237 239 240 241 243 246 249 249 249 249 249 253 258 264 267 270 271 273 273 272 270 269 269 267 264 259 253 251 250 246 248 250 251 250 241 230 230 237 245 252 258 265 274 285 294 303 313 324 336 343 342 335 327 327 329 333 340 344 345 342 336 331 331 337 346 347 342 343 346 344 340 341 340 337 333 330 326 321 319 318
236 235 236 237 238 239 241 243 244 245 248 251 252 251 250 250 253 258 264 268 270 270 271 272 272 270 269 269 267 266 262 256 252 249 245 245 248 250 250 244 236 234 239 247 253 259 267 276 287 296 302 311 320 328 335 335 328 318 320 326 331 337 340 341 342 338 333 329 333 344 349 344 342 345 344 341 341 339 333 329 327 324 320 316 315
236 236 236 237 239 240 242 244 247 248 249 251 253 253 251 250 251 256 262 267 269 270 270 271 272 271 269 269 268 268 265 260 256 251 246 244 246 248 248 244 240 238 240 247 254 261 270 279 288 294 300 309 316 319 323 327 322 311 315 324 329 335 338 339 340 339 335 332 334 344 349 344 342 344 343 341 343 341 335 330 325 322 317 313 311
237 237 237 238 239 241 243 245 248 250 251 252 252 252 251 250 250 254 260 264 267 269 270 270 271 271 270 270 269 270 269 266 260 254 249 245 242 244 246 243 241 240 242 248 256 263 271 278 285 292 298 305 309 312 317 320 315 306 314 321 326 333 336 336 336 337 337 335 334 341 346 342 339 342 342 342 345 343 338 333 328 322 318 314 312
239 239 239 239 240 242 243 245 248 250 252 252 252 252 251 249 250 253 258 262 265 268 269 269 270 271 271 271 271 271 271 270 265 258 252 248 241 237 242 243 242 243 246 251 258 265 271 278 284 290 295 298 302 307 313 315 310 308 314 320 324 331 334 334 333 332 335 336 334 337 342 339 336 341 345 345 345 343 339 335 330 325 319 315 312
241 240 240 240 241 242 243 245 247 249 252 252 252 252 251 249 250 253 257 260 262 265 268 269 270 271 271 271 271 271 272 271 268 262 256 254 248 237 238 242 245 247 250 255 260 267 274 281 285 288 291 292 295 304 310 310 306 307 312 320 326 330 333 334 333 331 332 333 334 336 339 337 336 341 347 347 343 341 340 338 334 330 326 319 313
241 240 240 240 240 242 244 245 246 248 251 252 251 251 252 251 250 252 256 259 261 263 267 269 269 270 270 270 270 270 271 271 269 264 260 259 257 246 238 239 245 249 253 257 261 267 275 284 289 291 291 290 293 301 307 308 308 309 314 322 327 329 330 333 335 334 331 330 332 336 337 336 337 339 342 345 344 340 340 340 336 334 332 328 320
240 239 239 239 239 241 243 245 245 247 249 251 250 251 253 253 252 252 255 259 260 262 264 266 268 269 269 270 270 270 271 271 269 266 262 260 259 252 243 239 244 249 253 258 263 268 275 285 292 294 294 293 295 301 305 307 309 311 315 322 325 326 328 331 333 335 333 330 330 333 335 336 336 336 336 339 343 341 338 338 337 335 333 331 327
239 239 238 238 239 240 242 244 245 246 248 250 250 251 253 255 254 254 254 256 259 261 263 265 266 268 269 269 269 269 270 271 270 266 263 260 258 253 248 244 245 249 254 260 265 271 278 284 288 291 293 295 298 303 307 308 308 309 314 319 321 323 327 329 330 332 334 331 329 330 333 334 334 335 333 334 338 340 339 339 339 337 334 332 330
Height
5934 5934 5933 5933 5933 5935 5937 5935 5932 5933 5934 5934 5934 5933 5933 5933 5933 5932 5931 5931 5932 5932 5933 5933 5933 5933 5934 5936 5937 5937 5937 5937 5936 5936 5936 5936 5936 5936 5936 5936 5936 5936 5936 5936 5936 5936 5936 5936 5936 5936 5936 5936 5936 5936 5936 5936 5936 5936 5935 5935 5935 5934 5934 5933 5933 5932 5932 5932 5931 5931 5931 5930 5930 5930 5930 5929 5929 5929 5928 5928 5927 5926 5926 5925 5924
5935 5935 5934 5935 5935 5935 5935 5935 5934 5934 5934 5935 5935 5935 5935 5935 5934 5933 5931 5932 5934 5934 5934 5935 5935 5936 5936 5938 5939 5938 5938 5938 5937 5937 5937 5937 5937 5937 5937 5937 5937 5937 5937 5937 5937 5937 5937 5937 5937 5937 5937 5937 5937 5937 5937 5937 5937 5937 5937 5936 5936 5935 5935 5935 5934 5934 5934 5934 5933 5933 5933 5932 5932 5932 5931 5931 5931 5930 5930 5929 5928 5927 5926 5925 5924
5936 5936 5936 5937 5937 5935 5935 5935 5935 5935 5935 5935 5935 5934 5934 5934 5934 5933 5933 5933 5935 5935 5936 5936 5937 5938 5938 5939 5940 5939 5939 5939 5939 5938 5938 5939 5938 5938 5938 5938 5938 5938 5938 5938 5938 5938 5938 5938 5938 5938 5938 5938 5938 5938 5938 5938 5938 5938 5938 5937 5937 5937 5937 5936 5936 5936 5936 5935 5935 5935 5934 5934 5934 5934 5933 5933 5932 5931 5931 5930 5929 5928 5927 5926 5925
5937 5937 5937 5938 5937 5937 5936 5936 5936 5936 5936 5936 5935 5935 5935 5935 5934 5934 5934 5935 5936 5936 5937 5937 5938 5940 5940 5940 5941 5941 5941 5940 5940 5940 5940 5940 5940 5940 5940 5939 5939 5939 5939 5939 5939 5939 5939 5939 5939 5939 5939 5939 5939 5939 5939 5939 5939 5939 5939 5939 5939 5938 5938 5938 5938 5937 5937 5937 5937 5936 5936 5936 5936 5935 5935 5934 5933 5933 5932 5931 5930 5929 5928 5927 5926
5938 5938 5937 5937 5938 5938 5938 5938 5937 5937 5937 5937 5937 5937 5937 5937 5937 5936 5936 5937 5937 5938 5939 5939 5940 5941 5942 5942 5941 5942 5942 5942 5942 5942 5942 5941 5941 5941 5941 5940 5940 5940 5940 5940 5940 5940 5940 5940 5940 5940 5940 5940 5940 5941 5941 5941 5941 5940 5940 5940 5940 5940 5940 5939 5939 5939 5939 5938 5938 5938 5938 5937 5937 5937 5936 5935 5935 5934 5933 5932 5931 5930 5929 5928 5927
5939 5939 5939 5939 5939 5939 5939 5939 5939 5939 5939 5939 5939 5939 5939 5939 5939 5939 5939 5939 5940 5940 5941 5942 5942 5943 5943 5943 5943 5943 5943 5943 5943 5943 5943 5943 5942 5942 5942 5942 5942 5942 5941 5941 5941 5941 5941 5941 5941 5941 5941 5942 5942 5942 5942 5942 5942 5942 5942 5942 5941 5941 5941 5941 5941 5940 5940 5940 5940 5939 5939 5939 5938 5938 5937 5936 5936 5935 5934 5933 5932 5931 5930 5929 5927
5940 5940 5941 5940 5940 5940 5940 5940 5940 5940 5940 5941 5940 5940 5940 5941 5941 5941 5941 5942 5942 5943 5944 5944 5944 5944 5944 5944 5944 5944 5944 5944 5945 5945 5945 5944 5944 5944 5943 5943 5943 5943 5943 5943 5943 5943 5943 5943 5943 5943 5943 5943 5943 5943 5944 5944 5944 5944 5943 5943 5943 5943 5942 5942 5942 5942 5942 5941 5941 5941 5940 5940 5939 5939 5938 5937 5936 5936 5935 5934 5933 5932 5930 5929 5928
5941 5942 5943 5942 5941 5941 5941 5941 5941 5941 5942 5942 5942 5941 5942 5943 5943 5943 5943 5944 5945 5945 5946 5946 5946 5946 5946 5946 5946 5946 5946 5946 5946 5946 5946 5946 5946 5946 5945 5945 5944 5945 5944 5944 5944 5944 5944 5944 5944 5944 5945 5945 5945 5945 5945 5945 5945 5945 5945 5944 5944 5944 5944 5944 5943 5943 5943 5942 5942 5942 5941 5941 5940 5939 5939 5938 5937 5936 5935 5934 5933 5932 5931 5930 5928
5942 5944 5945 5944 5944 5943 5943 5943 5943 5943 5944 5945 5945 5944 5944 5945 5945 5945 5945 5946 5946 5947 5947 5947 5947 5947 5947 5947 5948 5948 5948 5948 5948 5948 5948 5948 5948 5948 5948 5947 5947 5946 5946 5946 5946 5946 5946 5946 5946 5946 5946 5946 5946 5946 5946 5946 5946 5946 5946 5946 5945 5945 5945 5945 5945 5944 5944 5943 5943 5943 5942 5941 5941 5940 5939 5939 5938 5937 5936 5935 5934 5933 5931 5930 5928
5943 5944 5945 5945 5946 5945 5945 5945 5945 5945 5946 5946 5946 5945 5946 5947 5946 5946 5946 5947 5948 5948 5948 5948 5948 5948 5949 5949 5949 5950 5950 5950 5950 5950 5950 5950 5950 5950 5950 5949 5949 5948 5948 5948 5948 5948 5948 5948 5948 5948 5948 5948 5948 5948 5948 5948 5948 5947 5947 5947 5947 5946 5946 5946 5946 5945 5945 5944 5944 5943 5943 5942 5941 5941 5940 5940 5939 5938 5937 5936 5934 5933 5931 5930 5929
5944 5945 5945 5946 5946 5947 5947 5947 5946 5947 5947 5947 5947 5948 5948 5948 5948 5947 5948 5948 5949 5949 5949 5950 5950 5950 5950 5951 5951 5951 5952 5952 5952 5952 5952 5952 5952 5952 5952 5951 5951 5951 5950 5950 5950 5950 5950 5950 5950 5950 5950 5950 5950 5950 5949 5949 5949 5949 5948 5948 5948 5948 5947 5947 5946 5946 5945 5945 5944 5944 5943 5943 5942 5942 5941 5940 5939 5938 5937 5936 5935 5933 5932 5930 5929
5945 5945 5945 5946 5946 5947 5948 5948 5948 5948 5948 5948 5949 5950 5950 5950 5949 5949 5949 5950 5950 5950 5951 5951 5951 5951 5952 5952 5953 5953 5953 5953 5954 5954 5954 5954 5954 5954 5953 5953 5953 5953 5953 5953 5953 5953 5952 5952 5952 5952 5952 5952 5951 5951 5951 5950 5950 5950 5949 5949 5949 5948 5948 5948 5947 5947 5946 5945 5945 5944 5944 5944 5943 5943 5942 5941 5940 5939 5938 5936 5935 5933 5932 5931 5929
5945 5946 5946 5946 5947 5947 5948 5949 5949 5950 5950 5950 5951 5951 5951 5951 5951 5951 5951 5951 5951 5952 5952 5952 5953 5953 5953 5954 5954 5955 5955 5955 5955 5956 5956 5955 5955 5955 5955 5955 5955 5955 5955 5955 5955 5955 5954 5954 5954 5954 5953 5953 5953 5952 5952 5952 5951 5951 5950 5950 5950 5949 5949 5948 5948 5947 5947 5947 5946 5946 5945 5945 5944 5943 5943 5942 5941 5939 5938 5937 5935 5934 5932 5931 5930
5947 5947 5947 5948 5948 5948 5949 5949 5950 5950 5951 5951 5951 5951 5952 5952 5952 5953 5953 5953 5953 5953 5954 5954 5954 5954 5955 5955 5956 5956 5957 5957 5957 5957 5957 5957 5957 5957 5957 5957 5957 5957 5957 5957 5957 5956 5956 5956 5956 5955 5955 5954 5954 5954 5953 5953 5952 5952 5951 5951 5951 5950 5950 5949 5949 5949 5948 5948 5948 5947 5947 5946 5945 5944 5943 5942 5941 5940 5939 5938 5936 5935 5933 5932 5930
5948 5949 5949 5949 5950 5950 5950 5950 5951 5951 5951 5951 5951 5952 5952 5953 5954 5954 5954 5954 5954 5955 5955 5956 5956 5956 5956 5957 5958 5958 5958 5959 5959 5959 5959 5958 5958 5958 5958 5958 5958 5958 5958 5958 5958 5958 5958 5957 5957 5957 5956 5956 5955 5955 5954 5954 5953 5953 5953 5952 5952 5952 5951 5951 5951 5950 5950 5950 5949 5949 5948 5947 5946 5945 5944 5943 5942 5941 5940 5938 5937 5935 5934 5932 5931
5949 5950 5950 5951 5951 5951 5952 5952 5952 5953 5952 5952 5952 5953 5953 5954 5954 5955 5955 5955 5956 5956 5957 5958 5958 5957 5958 5959 5959 5960 5960 5960 5960 5960 5960 5959 5959 5959 5959 5960 5960 5960 5960 5960 5960 5959 5959 5959 5958 5958 5957 5957 5956 5956 5955 5955 5954 5954 5954 5954 5954 5953 5953 5953 5952 5952 5952 5951 5950 5950 5949 5948 5947 5946 5945 5944 5943 5942 5941 5939 5938 5936 5934 5933 5931
5950 5951 5951 5952 5952 5952 5953 5954 5954 5954 5954 5954 5954 5954 5954 5954 5955 5955 5956 5956 5957 5958 5958 5959 5959 5959 5959 5960 5960 5961 5961 5961 5961 5961 5961 5960 5960 5960 5960 5961 5961 5961 5961 5961 5961 5960 5960 5960 5959 5959 5959 5958 5958 5957 5957 5956 5956 5956 5956 5955 5955 5955 5955 5954 5954 5953 5953 5952 5952 5951 5950 5949 5948 5947 5946 5945 5944 5943 5941 5940 5938 5937 5935 5933 5931
5951 5952 5952 5953 5953 5953 5954 5954 5955 5955 5955 5955 5955 5955 5956 5956 5956 5957 5957 5957 5958 5959 5959 5960 5960 5961 5961 5961 5961 5962 5962 5961 5961 5962 5962 5961 5961 5961 5962 5962 5962 5962 5962 5962 5961 5961 5961 5961 5960 5960 5960 5959 5959 5959 5959 5958 5958 5957 5957 5957 5957 5957 5956 5955 5955 5954 5954 5953 5953 5952 5951 5950 5949 5948 5947 5946 5945 5943 5942 5940 5939 5937 5935 5933 5931
5952 5953 5953 5953 5954 5954 5954 5955 5956 5956 5956 5956 5956 5956 5957 5957 5957 5958 5958 5959 5959 5960 5960 5961 5961 5962 5962 5962 5962 5962 5962 5962 5962 5962 5962 5962 5962 5962 5963 5963 5963 5963 5963 5963 5962 5962 5962 5962 5961 5961 5961 5961 5960 5960 5960 5960 5960 5959 5959 5959 5958 5958 5957 5957 5956 5955 5955 5954 5954 5953 5952 5951 5950 5949 5948 5947 5945 5944 5942 5941 5939 5937 5935 5933 5931
5952 5953 5954 5954 5955 5955 5955 5956 5956 5957 5957 5957 5957 5957 5957 5958 5958 5958 5959 5960 5960 5961 5961 5962 5962 5963 5963 5963 5963 5963 5963 5963 5963 5963 5963 5963 5963 5963 5963 5963 5964 5964 5964 5963 5963 5963 5963 5962 5962 5962 5962 5962 5962 5962 5961 5961 5961 5961 5960 5960 5959 5959 5958 5958 5957 5956 5956 5955 5955 5954 5953 5952 5951 5950 5948 5947 5945 5944 5942 5940 5939 5937 5935 5933 5931
5953 5953 5954 5955 5955 5956 5956 5957 5957 5958 5958 5958 5958 5958 5958 5958 5958 5959 5960 5960 5961 5961 5962 5963 5963 5963 5964 5964 5964 5964 5964 5964 5963 5964 5964 5964 5964 5964 5964 5964 5965 5964 5964 5964 5964 5964 5964 5964 5964 5964 5964 5963 5963 5963 5963 5963 5962 5962 5962 5961 5961 5960 5959 5959 5958 5958 5957 5956 5955 5955 5954 5952 5951 5950 5948 5947 5945 5944 5942 5940 5938 5937 5935 5933 5931
5953 5954 5954 5955 5955 5956 5957 5957 5958 5958 5958 5959 5959 5959 5959 5959 5959 5959 5960 5961 5961 5962 5962 5963 5964 5964 5965 5965 5965 5965 5964 5964 5964 5964 5964 5964 5964 5965 5965 5965 5965 5965 5965 5965 5965 5965 5965 5965 5965 5965 5965 5965 5964 5964 5964 5964 5963 5963 5963 5962 5962 5961 5961 5960 5959 5959 5958 5957 5956 5955 5954 5953 5951 5950 5949 5947 5945 5944 5942 5940 5938 5936 5934 5933 5931
5953 5954 5955 5955 5956 5956 5957 5957 5958 5958 5959 5959 5959 5959 5959 5959 5959 5960 5961 5961 5962 5962 5963 5964 5964 5965 5965 5966 5966 5965 5965 5965 5964 5965 5965 5965 5965 5965 5966 5966 5966 5965 5965 5966 5966 5966 5966 5966 5966 5966 5966 5965 5965 5965 5965 5965 5964 5964 5963 5963 5962 5962 5961 5961 5960 5959 5959 5958 5957 5956 5954 5953 5952 5950 5949 5947 5945 5943 5942 5940 5938 5936 5934 5932 5930
5953 5954 5955 5955 5956 5956 5957 5957 5958 5958 5959 5959 5959 5959 5960 5960 5960 5961 5961 5962 5963 5963 5964 5964 5965 5965 5966 5966 5966 5966 5966 5965 5965 5965 5965 5966 5966 5966 5966 5966 5966 5966 5966 5966 5967 5967 5967 5967 5967 5967 5967 5966 5966 5966 5966 5965 5965 5964 5964 5964 5963 5963 5962 5961 5961 5960 5959 5958 5957 5956 5955 5953 5952 5950 5949 5947 5945 5943 5942 5940 5938 5936 5934 5932 5930
5953 5954 5955 5956 5956 5957 5957 5957 5958 5958 5959 5959 5959 5960 5960 5960 5960 5961 5962 5962 5963 5964 5964 5965 5965 5965 5966 5966 5966 5966 5966 5965 5965 5966 5966 5966 5967 5967 5967 5967 5967 5967 5967 5967 5967 5967 5968 5968 5968 5968 5967 5967 5967 5967 5966 5966 5965 5965 5964 5964 5963 5963 5963 5962 5961 5961 5960 5959 5957 5956 5955 5953 5952 5950 5949 5947 5945 5943 5942 5940 5938 5936 5934 5931 5929
5954 5955 5956 5956 5957 5957 5957 5958 5958 5959 5959 5960 5960 5960 5960 5960 5961 5961 5962 5963 5963 5964 5964 5965 5965 5965 5966 5966 5966 5966 5966 5966 5966 5966 5967 5967 5967 5967 5967 5967 5967 5967 5968 5968 5968 5968 5968 5968 5968 5968 5968 5968 5967 5967 5967 5967 5966 5966 5965 5965 5964 5964 5963 5962 5962 5961 5960 5959 5957 5956 5955 5953 5952 5950 5949 5947 5945 5943 5941 5939 5937 5935 5933 5930 5928
5954 5955 5956 5957 5957 5958 5958 5959 5959 5959 5960 5960 5960 5961 5961 5961 5961 5962 5962 5963 5963 5964 5964 5965 5965 5965 5965 5966 5966 5966 5966 5966 5966 5967 5967 5967 5967 5967 5967 5968 5968 5968 5968 5968 5968 5969 5969 5969 5969 5969 5968 5968 5968 5968 5968 5967 5967 5967 5966 5966 5965 5964 5964 5963 5962 5961 5960 5959 5958 5956 5955 5953 5952 5950 5949 5947 5945 5943 5941 5938 5936 5934 5931 5929 5926
5954 5955 5956 5957 5958 5958 5959 5959 5960 5960 5961 5961 5961 5961 5962 5962 5962 5962 5963 5963 5964 5964 5964 5964 5965 5965 5965 5965 5966 5966 5966 5966 5966 5967 5968 5968 5968 5967 5968 5968 5968 5968 5969 5969 5969 5969 5969 5969 5969 5969 5969 5969 5969 5968 5968 5968 5968 5967 5967 5966 5966 5965 5964 5963 5962 5961 5960 5959 5958 5957 5955 5954 5953 5951 5949 5947 5944 5942 5940 5938 5935 5933 5930 5928 5925
5954 5955 5956 5957 5958 5959 5959 5960 5961 5961 5961 5962 5962 5962 5962 5962 5963 5963 5963 5964 5964 5964 5965 5965 5965 5965 5965 5965 5966 5966 5966 5966 5966 5967 5968 5968 5968 5968 5968 5969 5969 5969 5969 5969 5969 5970 5970 5970 5970 5970 5969 5969 5969 5969 5969 5969 5969 5968 5967 5967 5966 5965 5965 5964 5962 5961 5960 5959 5958 5957 5956 5954 5952 5950 5948 5946 5944 5941 5939 5937 5934 5932 5930 5927 5924
5953 5954 5956 5957 5958 5959 5960 5960 5961 5961 5962 5962 5962 5962 5962 5963 5963 5963 5964 5964 5964 5965 5965 5965 5965 5965 5965 5965 5966 5966 5966 5966 5966 5967 5968 5968 5968 5968 5969 5969 5969 5969 5969 5970 5970 5970 5970 5970 5970 5970 5970 5970 5970 5970 5970 5970 5969 5968 5968 5967 5966 5965 5965 5964 5962 5961 5960 5959 5958 5956 5955 5953 5951 5949 5947 5945 5942 5940 5938 5936 5933 5931 5928 5926 5923
5953 5954 5955 5956 5957 5958 5959 5960 5961 5961 5962 5962 5962 5962 5963 5963 5963 5963 5964 5964 5964 5965 5965 5965 5966 5966 5966 5966 5966 5966 5966 5965 5966 5967 5968 5968 5968 5968 5969 5969 5970 5970 5970 5970 5970 5970 5970 5971 5971 5971 5971 5971 5971 5971 5970 5970 5969 5968 5968 5967 5966 5965 5964 5963 5962 5961 5959 5958 5956 5955 5954 5952 5950 5948 5946 5944 5941 5939 5936 5934 5932 5929 5926 5924 5921
5952 5953 5954 5956 5957 5958 5959 5960 5961 5961 5962 5962 5962 5962 5963 5963 5963 5963 5964 5964 5964 5965 5965 5965 5966 5966 5966 5966 5966 5966 5966 5966 5966 5967 5968 5968 5968 5969 5969 5970 5970 5970 5970 5970 5971 5971 5971 5971 5971 5971 5971 5971 5971 5971 5970 5970 5969 5968 5967 5966 5966 5965 5964 5963 5962 5960 5958 5957 5955 5954 5953 5951 5949 5947 5945 5942 5940 5937 5935 5932 5930 5927 5925 5922 5919
5952 5953 5954 5955 5956 5957 5958 5959 5960 5961 5961 5962 5962 5962 5963 5963 5963 5963 5963 5964 5964 5964 5965 5965 5966 5966 5966 5967 5967 5966 5966 5966 5966 5967 5967 5968 5968 5969 5969 5970 5970 5970 5971 5971 5971 5971 5971 5971 5971 5972 5972 5972 5971 5971 5971 5970 5969 5968 5967 5966 5966 5965 5964 5962 5961 5959 5958 5956 5954 5953 5951 5949 5947 5945 5943 5940 5938 5935 5933 5930 5928 5925 5922 5920 5917
5951 5952 5953 5954 5955 5956 5958 5959 5960 5960 5961 5961 5962 5962 5962 5962 5963 5963 5963 5963 5964 5964 5964 5965 5966 5966 5966 5967 5967 5967 5966 5966 5966 5967 5967 5968 5968 5969 5970 5970 5970 5971 5971 5971 5971 5971 5971 5971 5972 5972 5972 5972 5971 5971 5971 5970 5969 5967 5966 5966 5965 5965 5964 5962 5961 5959 5957 5955 5954 5951 5949 5947 5945 5943 5940 5938 5935 5933 5930 5928 5925 5922 5920 5917 5914
5949 5951 5952 5953 5954 5955 5957 5958 5959 5959 5960 5961 5961 5961 5962 5962 5962 5963 5963 5963 5963 5964 5964 5964 5965 5966 5966 5967 5967 5967 5967 5966 5966 5967 5967 5968 5968 5969 5970 5970 5970 5970 5971 5971 5971 5971 5972 5972 5972 5972 5972 5971 5971 5971 5971 5970 5968 5967 5966 5965 5965 5964 5963 5961 5960 5958 5956 5955 5953 5950 5948 5945 5942 5940 5937 5935 5933 5930 5928 5925 5922 5919 5916 5914 5912
5948 5949 5950 5952 5953 5954 5955 5956 5957 5958 5959 5959 5960 5961 5961 5961 5962 5962 5963 5963 5963 5963 5964 5964 5965 5965 5966 5967 5967 5967 5967 5967 5966 5966 5967 5968 5968 5969 5970 5970 5970 5970 5970 5971 5971 5972 5972 5972 5972 5972 5971 5971 5970 5971 5970 5969 5967 5967 5966 5965 5964 5963 5962 5960 5959 5957 5955 5953 5951 5949 5946 5944 5941 5939 5936 5933 5931 5928 5925 5922 5919 5916 5913 5911 5909
5947 5948 5949 5950 5951 5952 5954 5955 5956 5957 5958 5958 5959 5960 5960 5960 5961 5961 5962 5962 5962 5963 5963 5963 5964 5964 5965 5966 5967 5967 5967 5967 5966 5966 5967 5968 5968 5969 5969 5969 5969 5969 5970 5971 5971 5972 5972 5971 5971 5970 5970 5970 5970 5970 5970 5968 5967 5966 5965 5964 5963 5961 5960 5959 5957 5955 5953 5952 5950 5948 5945 5943 5941 5938 5935 5932 5929 5926 5922 5919 5915 5912 5910 5908 5906
5946 5947 5948 5949 5950 5951 5952 5953 5954 5955 5956 5957 5958 5958 5959 5959 5960 5960 5961 5961 5962 5962 5962 5963 5963 5963 5964 5965 5966 5966 5966 5966 5966 5966 5966 5967 5968 5969 5969 5969 5969 5969 5970 5970 5971 5971 5971 5970 5970 5969 5969 5969 5969 5969 5968 5967 5966 5965 5964 5963 5961 5960 5959 5958 5956 5955 5952 5950 5949 5947 5944 5942 5939 5937 5935 5932 5928 5925 5921 5917 5913 5909 5905 5903 5902
5944 5945 5946 5947 5949 5949 5950 5951 5953 5954 5955 5956 5956 5957 5958 5958 5959 5959 5960 5960 5961 5961 5961 5962 5962 5962 5963 5964 5965 5966 5966 5966 5966 5966 5966 5966 5967 5968 5968 5968 5968 5968 5969 5970 5970 5970 5970 5969 5969 5968 5968 5968 5968 5967 5966 5965 5964 5964 5963 5962 5961 5960 5958 5956 5955 5954 5952 5950 5948 5945 5943 5941 5938 5936 5933 5931 5928 5925 5922 5918 5914 5909 5904 5900 5898
5943 5944 5945 5946 5947 5948 5949 5950 5951 5952 5953 5954 5955 5956 5956 5957 5957 5958 5959 5959 5960 5960 5960 5961 5961 5961 5962 5963 5964 5965 5965 5965 5965 5965 5965 5965 5966 5967 5967 5967 5968 5968 5969 5969 5970 5970 5969 5969 5968 5968 5967 5967 5967 5967 5965 5963 5962 5962 5962 5962 5961 5960 5958 5955 5953 5952 5951 5949 5947 5944 5941 5939 5936 5933 5930 5928 5925 5923 5920 5917 5913 5909 5904 5900 5896
5941 5942 5943 5945 5946 5947 5948 5949 5950 5951 5952 5953 5954 5955 5955 5956 5956 5957 5957 5958 5959 5959 5959 5960 5960 5960 5961 5961 5962 5963 5964 5964 5964 5964 5964 5965 5965 5965 5966 5967 5967 5967 5968 5968 5969 5969 5968 5968 5967 5967 5967 5966 5966 5966 5964 5962 5961 5961 5961 5960 5960 5959 5957 5954 5951 5949 5948 5948 5946 5943 5939 5935 5933 5931 5928 5925 5922 5920 5917 5914 5910 5907 5904 5900 5896
5939 5940 5942 5943 5944 5945 5946 5947 5949 5950 5951 5952 5952 5953 5954 5954 5955 5955 5956 5957 5957 5958 5958 5959 5959 5959 5959 5960 5961 5962 5962 5963 5963 5963 5963 5963 5964 5964 5964 5965 5966 5967 5967 5967 5967 5967 5967 5966 5966 5965 5965 5965 5965 5965 5964 5962 5961 5960 5959 5958 5958 5957 5956 5954 5951 5947 5945 5945 5945 5943 5938 5933 5931 5930 5927 5923 5921 5917 5913 5909 5906 5903 5900 5898 5895
5937 5938 5940 5941 5943 5943 5944 5946 5947 5948 5949 5950 5951 5951 5952 5953 5954 5954 5955 5955 5956 5957 5957 5957 5958 5958 5958 5958 5959 5960 5960 5961 5961 5962 5962 5962 5962 5963 5963 5964 5965 5965 5966 5966 5966 5966 5965 5965 5964 5963 5963 5963 5964 5964 5963 5962 5960 5959 5958 5956 5955 5954 5953 5952 5951 5947 5944 5942 5942 5941 5938 5932 5929 5928 5926 5922 5919 5916 5912 5907 5903 5899 5897 5895 5892
5934 5936 5937 5939 5940 5941 5942 5943 5945 5946 5948 5948 5949 5950 5950 5952 5952 5953 5954 5954 5955 5955 5956 5956 5956 5956 5957 5957 5957 5958 5959 5959 5960 5960 5961 5961 5961 5961 5961 5962 5963 5964 5964 5964 5964 5964 5963 5963 5962 5961 5961 5962 5962 5962 5962 5961 5960 5958 5957 5955 5953 5952 5950 5949 5948 5946 5943 5941 5939 5938 5935 5931 5928 5926 5924 5921 5918 5916 5913 5908 5903 5899 5895 5892 5890
5930 5932 5934 5936 5937 5939 5940 5941 5943 5944 5945 5947 5947 5948 5949 5950 5951 5952 5952 5953 5953 5953 5954 5954 5955 5955 5955 5955 5956 5956 5957 5957 5958 5958 5959 5959 5960 5960 5960 5961 5961 5962 5962 5962 5962 5962 5961 5961 5961 5960 5959 5960 5960 5959 5959 5959 5958 5957 5955 5954 5951 5949 5947 5946 5944 5943 5941 5938 5936 5935 5933 5930 5927 5924 5921 5919 5916 5913 5910 5906 5901 5897 5894 5891 5888
5927 5930 5932 5933 5935 5936 5938 5939 5940 5941 5943 5945 5945 5945 5946 5947 5949 5950 5950 5951 5951 5952 5952 5952 5953 5953 5953 5953 5954 5954 5955 5956 5956 5957 5957 5958 5958 5958 5958 5959 5959 5960 5960 5960 5960 5959 5959 5959 5959 5959 5958 5958 5957 5957 5956 5956 5956 5955 5954 5952 5950 5948 5945 5943 5941 5940 5938 5936 5933 5932 5931 5928 5925 5923 5920 5916 5913 5910 5906 5902 5899 5895 5892 5889 5886
5925 5927 5928 5930 5932 5934 5935 5937 5938 5939 5940 5942 5943 5943 5944 5945 5946 5947 5948 5949 5949 5950 5950 5950 5950 5951 5951 5951 5952 5952 5953 5954 5954 5955 5955 5955 5956 5957 5957 5957 5957 5957 5958 5958 5958 5957 5957 5957 5957 5957 5957 5956 5955 5954 5954 5953 5953 5952 5951 5950 5948 5946 5944 5941 5938 5935 5934 5933 5930 5929 5928 5926 5923 5921 5918 5913 5910 5907 5904 5900 5896 5893 5890 5887 5885
5922 5924 5925 5927 5929 5931 5932 5934 5935 5936 5937 5939 5940 5940 5941 5942 5944 5945 5946 5947 5947 5948 5948 5948 5948 5949 5949 5949 5949 5950 5951 5952 5952 5953 5953 5953 5954 5954 5955 5954 5954 5955 5956 5956 5955 5955 5954 5954 5955 5955 5955 5954 5953 5952 5951 5950 5950 5949 5948 5947 5945 5944 5942 5940 5936 5932 5929 5928 5926 5924 5923 5921 5918 5916 5915 5912 5907 5904 5902 5898 5894 5891 5888 5885 5883
5919 5921 5922 5924 5926 5927 5929 5931 5933 5934 5934 5936 5937 5937 5938 5940 5941 5943 5944 5945 5945 5945 5945 5945 5946 5946 5947 5947 5947 5948 5949 5949 5950 5950 5950 5951 5951 5951 5952 5952 5952 5952 5953 5953 5953 5953 5951 5951 5951 5952 5951 5951 5950 5950 5948 5947 5946 5945 5944 5943 5941 5940 5939 5938 5936 5932 5927 5923 5922 5921 5919 5916 5913 5910 5910 5910 5906 5901 5898 5896 5892 5888 5885 5883 5880
5915 5917 5919 5920 5922 5924 5925 5927 5929 5930 5931 5933 5934 5935 5935 5937 5939 5940 5941 5942 5943 5943 5943 5943 5943 5944 5944 5944 5945 5945 5946 5947 5948 5948 5948 5948 5948 5949 5949 5950 5950 5950 5950 5950 5950 5950 5949 5949 5948 5948 5947 5947 5947 5946 5945 5944 5943 5941 5940 5939 5937 5936 5935 5934 5932 5931 5927 5921 5918 5918 5916 5914 5911 5907 5905 5906 5906 5901 5896 5893 5890 5886 5882 5879 5877
5912 5914 5916 5917 5919 5921 5922 5924 5926 5927 5928 5930 5931 5932 5933 5934 5936 5937 5938 5939 5940 5940 5940 5940 5940 5941 5941 5942 5942 5943 5944 5944 5945 5946 5946 5947 5947 5946 5946 5947 5948 5948 5947 5947 5947 5947 5947 5946 5946 5945 5944 5944 5943 5942 5941 5940 5938 5937 5936 5935 5934 5932 5931 5929 5927 5926 5924 5920 5916 5914 5913 5911 5908 5906 5903 5900 5900 5900 5896 5891 5886 5883 5879 5876 5873